Regional Weather Roundup
Issued by NWS

Home | Current Version | Previous Version | Text Only | Print | Product List | Glossary On
Versions: 1 2 3 4 5 6 7 8 9 10 11 12 13 14 15 16 17 18 19 20 21 22 23 24 25 26 27 28 29 30 31 32 33 34 35 36 37 38 39 40 41 42 43 44 45 46 47 48 49 50
000
ASUS43 KIND 310659
RWRIN

WEATHER ROUNDUP FOR INDIANA
NATIONAL WEATHER SERVICE INDIANAPOLIS IN
300 AM EDT SAT JUL 31 2021

NOTE: "FAIR" INDICATES FEW OR NO CLOUDS BELOW 12,000 FEET WITH NO
SIGNIFICANT WEATHER AND/OR OBSTRUCTIONS TO VISIBILITY.

* - STATION DOES NOT REPORT WEATHER SUCH AS PRECIPITATION OR FOG.

+ - STATION NOT QUALITY CONTROLLED BY THE NATIONAL WEATHER SERVICE.
    USE DATA WITH CAUTION...ESPECIALLY DEWPOINT AND RELATIVE
    HUMIDITY OBSERVATIONS.

INZ001>003-010>013-019-020-310800-
NORTHWEST INDIANA

CITY           SKY/WX    TMP DP  RH WIND       PRES   REMARKS
GARY /AIRPORT/ MOCLDY    66  58  75 N3        30.11S
MICHIGAN CITY+ MOCLDY    57  54  88 CALM      30.10S
MONTICELLO +   CLOUDY    62  58  87 CALM      30.09F
RENSSELAER +   CLOUDY    61  59  94 CALM      30.11S

$$

LMZ046-743>745-310800-
SOUTHERN LAKE MICHIGAN

STATION/POSITION TIME  TEMP    WIND        PRES    WAVE
                       AIR SEA DIR/SP/G            HT
                 (UTC) (F)     (DEG/KT/KT) (MB)    (FT)
BURNS HARBOR     0630   69      20/  5/  7 1019.3F
MICHIGAN CITY    0630   69      10/ 11/ 12 1018.7R
5NW MICH CITY    0640   70      10/  8/ 12   N/A     3

$$

INZ004-005-014>016-021>024-310800-
NORTH CENTRAL INDIANA

CITY           SKY/WX    TMP DP  RH WIND       PRES   REMARKS
GOSHEN         MOCLDY    60  57  89 W3        30.08F
PERU/GRISSOM   CLOUDY    63  57  80 CALM      30.08F
ROCHESTER +    CLOUDY    63  59  88 CALM      30.09F
SOUTH BEND     PTCLDY    60  56  86 CALM      30.09S
WARSAW +       CLOUDY    61  55  82 CALM      30.08F

$$

INZ006>009-017-018-025>027-310800-
NORTHEAST INDIANA

CITY           SKY/WX    TMP DP  RH WIND       PRES   REMARKS
ANGOLA *+      MOCLDY    61  59  94 CALM      30.07F
AUBURN +       CLOUDY    63  59  88 CALM      30.08S
FORT WAYNE     CLOUDY    64  59  83 NW3       30.08S
KENDALLVILLE + FAIR      61  61 100 CALM      30.09S

$$

INZ028-029-035-036-043>045-051>053-310800-
WEST CENTRAL INDIANA

CITY           SKY/WX    TMP DP  RH WIND       PRES   REMARKS
CRAWFORDSVL +  MOCLDY    60  56  88 CALM      30.09F
LAFAYETTE      CLOUDY    64  57  78 NE3       30.08F
TERRE HAUTE    PTCLDY    64  60  87 N3        30.07F

$$

INZ030>032-037>040-046>048-054>057-064-065-310800-
CENTRAL INDIANA

CITY           SKY/WX    TMP DP  RH WIND       PRES   REMARKS
ANDERSON +     LGT RAIN  64  57  78 N3        30.10R
GREENWOOD *+   PTCLDY    66  58  76 N5        30.08S
INDIANAPOLIS   MOCLDY    66  57  72 N7        30.07F
-EAGLE CREEK   PTCLDY    65  57  75 N5        30.07F
KOKOMO +       LGT RAIN  63  63 100 W3        30.09F
SHELBYVILLE    PTCLDY    65  61  87 N6        30.07S

$$

INZ033-034-041-042-049-050-058-059-310800-
EAST CENTRAL INDIANA

CITY           SKY/WX    TMP DP  RH WIND       PRES   REMARKS
MUNCIE         CLOUDY    66  60  81 NW3       30.08S
PORTLAND +     CLOUDY    64  59  82 CALM      30.07F
RICHMOND +     MOCLDY    64  61  88 CALM      30.08F

$$

INZ060-061-067>069-081>083-085>088-310800-
SOUTHWEST INDIANA

CITY           SKY/WX    TMP DP  RH WIND       PRES   REMARKS
EVANSVILLE     MOCLDY    68  64  87 CALM      30.05F
HUNTINGBURG +  PTCLDY    64  63  96 CALM      30.05S

$$

INZ062-063-066-070>080-084-089>092-310800-
SOUTH CENTRAL AND SOUTHEAST INDIANA

CITY           SKY/WX    TMP DP  RH WIND       PRES   REMARKS
BATESVILLE +   PTCLDY    63  63 100 CALM      30.06F
BLOOMINGTON    PTCLDY    63  59  87 N3        30.07S

$$




USA.gov is the U.S. government's official web portal to all federal, state and local government web resources and services.